Flag for United Kingdom Weather past 2 weeks in Swanage, England, United Kingdom

Now
37 °F

Rain showers. Scattered clouds.


Feels Like: 29 °F
Forecast: N/A
Wind: 13 mph from Northwest

Location: Bournemouth Airport

Current Time: Jan 29, 2015 at 4:50:44 PM

Latest Report: Jan 29, 2015 at 4:20 PM


Visibility: 3 mi

Pressure: 28.91 "Hg

Humidity: 87%

Dew point: 34 °F

Location of SwanageLocation

Historic Weather in Swanage — Graph

°F

Swanage temperature yesterday

Maximum temperature yesterday: 52 °F (at 10:20 AM)
Minimum temperature yesterday: 36 °F (at 7:50 PM)
Average temperature yesterday: 44 °F

Past Weeks' High & Low Weather Summary

 TemperatureHumidityPressure
High52 °F (Jan 15, 1:20 AM)100% (Jan 16, 9:50 AM)30.51 "Hg (Jan 16, 9:50 AM)
Low21 °F (Jan 23, 4:50 AM)57% (Jan 28, 2:20 PM)28.94 "Hg (Jan 29, 3:20 PM)
Average40 °F85%29.93 "Hg
* Reported Jan 14 3:20 PM — Jan 29 3:50 PM, Swanage, Weather by CustomWeather, © 2014

Note: Actual official high and low records may vary slightly from our data, if they occured in-between our weather recording intervals... More about our weather records

Advertising

Swanage weather history for previous 24 hours

 ConditionsComfort  
Time TempWeatherWind HumidityBarometerVisibility
3:50 PM
Jan 29
39 °FScattered showers. Partly sunny.15 mph87%28.94 "HgN/A
3:20 PM37 °FPartly sunny.15 mph93%28.94 "HgN/A
2:50 PM37 °FRain showers. Partly sunny.22 mph87%28.97 "Hg2 mi
2:20 PM41 °FScattered clouds.17 mph81%28.97 "HgN/A
1:50 PM41 °FScattered clouds.17 mph87%29.00 "HgN/A
1:20 PM39 °FSprinkles. Scattered clouds.21 mph81%29.03 "Hg4 mi
12:50 PM45 °FScattered clouds.13 mph81%29.03 "Hg6 mi
12:20 PM43 °FLight rain. Scattered clouds.20 mph76%29.06 "Hg6 mi
11:50 AM45 °FScattered clouds.16 mph71%29.09 "HgN/A
11:20 AM45 °FScattered clouds.12 mph76%29.12 "HgN/A
10:50 AM43 °FScattered clouds.10 mph81%29.15 "HgN/A
10:20 AM43 °FScattered clouds.12 mph81%29.18 "HgN/A
9:50 AM41 °FScattered clouds.9 mph87%29.18 "HgN/A
9:20 AM39 °FScattered clouds.9 mph87%29.24 "HgN/A
8:20 AM37 °FScattered clouds.9 mph87%29.27 "HgN/A
7:50 AM37 °FScattered clouds.8 mph87%29.30 "HgN/A
7:20 AM36 °FPassing clouds.6 mph87%29.30 "HgN/A
6:50 AM37 °FPassing clouds.10 mph87%29.33 "HgN/A
6:20 AM37 °FPassing clouds.8 mph87%29.33 "HgN/A
5:50 AM37 °FPassing clouds.9 mph87%29.36 "HgN/A
5:20 AM36 °FClear.10 mph93%29.39 "Hg10 mi
4:50 AM37 °FClear.10 mph87%29.39 "Hg10 mi
10:50 PM
Jan 28
37 °FPassing clouds.9 mph81%29.62 "HgN/A
10:20 PM37 °FClear.13 mph81%29.62 "Hg10 mi
9:20 PM37 °FClear.12 mph81%29.65 "Hg10 mi
8:50 PM37 °FClear.8 mph81%29.68 "Hg10 mi
8:20 PM37 °FPassing clouds.12 mph81%29.68 "HgN/A
7:50 PM36 °FClear.10 mph81%29.68 "Hg10 mi
7:20 PM37 °FClear.14 mph75%29.68 "Hg10 mi
6:50 PM37 °FClear.16 mph75%29.68 "Hg10 mi
6:20 PM39 °FClear.14 mph70%29.71 "Hg10 mi
5:50 PM41 °FPassing clouds.16 mph70%29.71 "HgN/A
5:20 PM41 °FPassing clouds.14 mph66%29.71 "HgN/A
4:50 PM41 °FScattered clouds.16 mph66%29.71 "HgN/A
4:20 PM41 °FPassing clouds.18 mph66%29.71 "HgN/A
Weather by CustomWeather, © 2014

See weather overviewHow to use our weather pages